This demonstration page uses our WeatherBlox Daily Observations layout. Learn more.

Left ArrowRight Arrow

Hourly Observations for August 20, 2022

Temp ( °F °C ) Dew Point ( °F °C ) Humidity (%) Winds ( mph kmh ) Pressure ( in mb ) Visibility ( mi km ) Precip ( " mm )
12:53 am 00:53 Mostly Clear 61 16.1 55 12.8 81 81 W 3 6 29.96 1015 10 16 0.00 0.00
1:53 am 01:53 Clear 60 15.6 55 12.8 83 83 Calm 29.94 1014 10 16 0.00 0.00
2:53 am 02:53 Clear 59 15 54 12.2 83 83 WNW 8 13 29.96 1014 10 16 0.00 0.00
3:53 am 03:53 Clear 59 15 55 12.8 87 87 WNW 7 11 29.96 1015 10 16 0.00 0.00
4:53 am 04:53 Clear 59 15 55 12.8 87 87 NW 8 13 29.97 1015 10 16 0.00 0.00
5:53 am 05:53 Clear 58 14.4 54 12.2 87 87 NW 5 7 29.99 1016 10 16 0.00 0.00
6:53 am 06:53 Sunny 60 15.6 56 13.3 86 86 NNW 9 15 30.01 1016 10 16 0.00 0.00
7:53 am 07:53 Sunny 61 16.1 57 13.9 87 87 WNW 5 7 30.04 1017 10 16 0.00 0.00
8:53 am 08:53 Sunny 66 18.9 60 15.6 81 81 NNW 12 19 30.06 1018 10 16 0.00 0.00
9:30 am 09:30 Mostly Cloudy 66 18.9 60 15.6 81 81 NW 10 17 30.04 1017 10 16 0.00 0.00
9:53 am 09:53 Cloudy 68 20 60 15.6 76 76 NW 10 17 30.08 1019 10 16 0.00 0.00
10:18 am 10:18 Partly Cloudy 70 21.1 60 15.6 71 71 NNW 10 17 30.04 1017 10 16 0.00 0.00
10:53 am 10:53 Mostly Cloudy 71 21.7 60 15.6 68 68 N 14 22 30.08 1019 10 16 0.00 0.00
11:07 am 11:07 Partly Cloudy 72 22.2 59 15 64 64 N 13 20 30.04 1017 10 16 0.00 0.00
11:41 am 11:41 Mostly Cloudy 72 22.2 59 15 64 64 N 14 22 30.04 1017 10 16 0.00 0.00
11:53 am 11:53 Mostly Cloudy 74 23.3 58 14.4 57 57 N 12 19 30.09 1019 10 16 0.00 0.00
12:53 pm 12:53 Mostly Sunny 76 24.4 58 14.4 54 54 N 10 17 30.07 1018 10 16 0.00 0.00
1:53 pm 13:53 Mostly Sunny 77 25 58 14.4 52 52 N 12 19 30.06 1018 10 16 0.00 0.00
2:53 pm 14:53 Sunny 79 26.1 58 14.4 49 49 N 15 24 30.04 1017 10 16 0.00 0.00
3:53 pm 15:53 Mostly Sunny 81 27.2 57 13.9 44 44 NNE 14 22 30.04 1017 10 16 0.00 0.00
4:53 pm 16:53 Sunny 80 26.7 56 13.3 44 44 NNE 12 19 30.03 1017 10 16 0.00 0.00
5:53 pm 17:53 Sunny 80 26.7 56 13.3 44 44 NNE 8 13 30.03 1017 10 16 0.00 0.00
6:53 pm 18:53 Sunny 78 25.6 57 13.9 48 48 ENE 7 11 30.04 1017 10 16 0.00 0.00
7:53 pm 19:53 Sunny 74 23.3 57 13.9 56 56 E 5 7 30.04 1017 10 16 0.00 0.00
8:53 pm 20:53 Clear 71 21.7 58 14.4 63 63 E 5 7 30.05 1018 10 16 0.00 0.00
9:53 pm 21:53 Clear 67 19.4 57 13.9 71 71 Calm 30.07 1018 9 14 0.00 0.00
10:53 pm 22:53 Clear 65 18.3 57 13.9 76 76 Calm 30.08 1019 10 16 0.00 0.00
11:53 pm 23:53 Clear 61 16.1 56 13.3 83 83 Calm 30.09 1019 10 16 0.00 0.00

Powered by AerisWeather